sat.trackr.live / text

‹ back to catalog

STARLINK-11706 [DTC]

NORAD 63753 · 2025-089C

PAYLOAD ACTIVE UNKNOWN

§ Identity

Operator
Country
US
Launch date
2025-04-29
Launch site
AFETR
Launch vehicle
Mass (kg)
RCS (m²)

Purposes: comms

External: N2YO · Heavens-Above · Gunter

§ Orbital elements

Epoch: 2026-05-25T03:33:45.411264Z

Period
91.67 min
Inclination
42.9992°
Eccentricity
0.0000985
Mean motion
15.70901835 rev/d
Perigee alt
355.7 km
Apogee alt
357.0 km
Semi-major
6,734.5 km
B*
1.1078e-3
RAAN
191.0956°
Arg perigee
280.7220°
Mean anomaly
79.3537°
Rev number
6,216

§ Raw data

STARLINK-11706 [DTC]1 63753U 25089C   26145.14844226  .00144569  00000+0  11078-2 0  99942 63753  42.9992 191.0956 0000985 280.7220  79.3537 15.70901835 62163

JSON: /api/v1/satellites/63753 · /tle

For live sub-satellite position, see the globe view (requires WebGL).

§ Visibility from observer

Set your observer location to see the next 7 days of passes ≥ 10°. The values pass through the URL so the page stays shareable.

No JS? Fill the form by hand. The geolocation button needs JavaScript.